sat.trackr.live / text

‹ back to catalog

STARLINK-36349

NORAD 67964 · 2026-038D

PAYLOAD ACTIVE UNKNOWN

§ Identity

Operator
Country
US
Launch date
2026-02-25
Launch site
AFWTR
Launch vehicle
Mass (kg)
RCS (m²)

Purposes: comms

External: N2YO · Heavens-Above · Gunter

§ Orbital elements

Epoch: 2026-05-25T00:30:27.042048Z

Period
93.91 min
Inclination
97.2838°
Eccentricity
0.0001732
Mean motion
15.33449060 rev/d
Perigee alt
464.3 km
Apogee alt
466.7 km
Semi-major
6,843.7 km
B*
5.9217e-4
RAAN
154.9962°
Arg perigee
97.4543°
Mean anomaly
262.6897°
Rev number
1,493

§ Raw data

STARLINK-363491 67964U 26038D   26145.02114632  .00019094  00000+0  59217-3 0  99972 67964  97.2838 154.9962 0001732  97.4543 262.6897 15.33449060 14934

JSON: /api/v1/satellites/67964 · /tle

For live sub-satellite position, see the globe view (requires WebGL).

§ Visibility from observer

Set your observer location to see the next 7 days of passes ≥ 10°. The values pass through the URL so the page stays shareable.

No JS? Fill the form by hand. The geolocation button needs JavaScript.